DW9695 Weather Reports


time (UTC)temp
C
wind
direction
speed
KPH
gust
KPH
rain 1hr
cm
rain 24hr
cm
rain mn
cm
humidity
%
barometer
mb
20260505153037 18 56 16.1 25.7 0.00 0.00 0.00 49 1010.0
20260505151533 17 56 17.7 24.1 0.00 0.00 0.00 50 1009.7
20260505124515 11 60 0.0 3.2 0.00 0.00 0.00 67 1008.4
20260505123010 11 42 1.6 4.8 0.00 0.00 0.00 70 1008.3
20260505121521 12 332 0.0 11.3 0.00 0.00 0.00 66 1008.2
20260505120005 13 36 3.2 8.0 0.00 0.00 0.00 63 1008.1
20260505114503 12 25 0.0 3.2 0.00 0.00 0.00 66 1007.9
20260505113117 12 63 3.2 8.0 0.00 0.00 0.00 65 1007.8
20260505111557 12 96 4.8 9.7 0.00 0.00 0.00 64 1007.6
20260505110105 13 36 1.6 6.4 0.00 0.00 0.00 62 1007.3
20260505101551 13 79 1.6 4.8 0.00 0.00 0.00 60 1006.9
20260505100048 13 59 1.6 6.4 0.00 0.00 0.00 60 1006.8
20260505094547 13 42 0.0 4.8 0.00 0.00 0.00 60 1006.8
20260505093053 13 44 3.2 9.7 0.00 0.00 0.00 61 1006.7
20260505091544 13 63 3.2 9.7 0.00 0.00 0.00 61 1006.6
20260505090046 13 86 0.0 6.4 0.00 0.00 0.00 60 1006.5
20260505084550 14 48 0.0 6.4 0.00 0.00 0.00 59 1006.4
20260505083043 14 53 0.0 6.4 0.00 0.00 0.00 58 1006.3
20260505081533 15 41 3.2 8.0 0.00 0.00 0.00 58 1006.1
20260505080041 15 25 1.6 8.0 0.00 0.00 0.00 57 1006.2
20260505074529 15 42 4.8 8.0 0.00 0.00 0.00 57 1006.2
20260505073034 16 32 1.6 6.4 0.00 0.00 0.00 57 1006.2
20260505071537 15 40 0.0 6.4 0.00 0.00 0.00 60 1006.0
20260505070024 15 51 4.8 11.3 0.00 0.00 0.00 61 1005.9
20260505064522 16 54 3.2 6.4 0.00 0.00 0.00 60 1005.8
20260505063022 16 41 4.8 9.7 0.00 0.00 0.00 58 1005.7
20260505061520 16 56 0.0 4.8 0.00 0.00 0.00 58 1005.7
20260505060030 16 42 1.6 8.0 0.00 0.00 0.00 60 1005.7
20260505054520 17 34 0.0 3.2 0.00 0.00 0.00 58 1005.4
20260505053026 17 42 0.0 4.8 0.00 0.00 0.00 60 1005.4
20260505051518 17 47 3.2 6.4 0.00 0.00 0.00 58 1005.2
20260505041516 20 34 0.0 1.6 0.00 0.00 0.00 52 1004.8
20260505040016 22 86 0.0 4.8 0.00 0.00 0.00 45 1004.7
20260505034515 22 91 4.8 8.0 0.00 0.00 0.00 44 1004.5
20260505033019 22 356 0.0 3.2 0.00 0.00 0.00 47 1004.3
20260505031514 23 82 1.6 6.4 0.00 0.00 0.00 40 1004.1
20260505030013 23 52 0.0 6.4 0.00 0.00 0.00 42 1004.0
20260505024513 23 40 1.6 6.4 0.00 0.00 0.00 42 1003.9
20260505023011 23 331 4.8 8.0 0.00 0.00 0.00 44 1003.7
20260505021513 25 317 4.8 6.4 0.00 0.00 0.00 38 1003.8
20260505020016 26 312 4.8 9.7 0.00 0.00 0.00 34 1003.8
20260505014508 27 331 9.7 16.1 0.00 0.00 0.00 30 1003.8
20260505013006 28 336 11.3 20.9 0.00 0.00 0.00 26 1003.9
20260505011504 28 359 8.0 16.1 0.00 0.00 0.00 27 1004.0
20260505010006 28 20 9.7 16.1 0.00 0.00 0.00 26 1004.1
20260505004510 29 323 9.7 17.7 0.00 0.00 0.00 25 1004.2
20260505003002 30 354 6.4 11.3 0.00 0.00 0.00 25 1004.1
20260505001502 30 347 6.4 17.7 0.00 0.00 0.00 24 1004.4
20260505000100 29 351 12.9 19.3 0.00 0.00 0.00 24 1004.4
20260504234558 29 315 8.0 12.9 0.00 0.00 0.00 21 1004.4
20260504233058 30 319 6.4 12.9 0.00 0.00 0.00 22 1004.3
20260504231558 29 312 8.0 16.1 0.00 0.00 0.00 21 1004.4
20260504230056 29 314 11.3 19.3 0.00 0.00 0.00 22 1004.6
20260504224555 30 315 12.9 22.5 0.00 0.00 0.00 22 1004.7
20260504223053 31 300 0.0 11.3 0.00 0.00 0.00 26 1004.7
20260504221552 30 316 1.6 9.7 0.00 0.00 0.00 22 1004.9
20260504220050 30 322 1.6 12.9 0.00 0.00 0.00 24 1005.1
20260504214555 30 309 0.0 11.3 0.00 0.00 0.00 25 1005.3
20260504213046 31 323 1.6 9.7 0.00 0.00 0.00 26 1005.5
20260504211543 29 17 8.0 14.5 0.00 0.00 0.00 27 1005.6
20260504210141 29 338 6.4 12.9 0.00 0.00 0.00 26 1005.8
20260504204556 29 51 0.0 8.0 0.00 0.00 0.00 26 1006.0
20260504203041 29 305 1.6 9.7 0.00 0.00 0.00 27 1006.1
20260504201636 29 305 0.0 8.0 0.00 0.00 0.00 29 1006.2
20260504200034 28 224 3.2 9.7 0.00 0.00 0.00 31 1006.4
20260504194533 28 278 0.0 9.7 0.00 0.00 0.00 28 1006.5
20260504193031 28 312 0.0 4.8 0.00 0.00 0.00 29 1006.6
20260504191528 27 27 0.0 9.7 0.00 0.00 0.00 28 1006.8
20260504190025 27 347 4.8 17.7 0.00 0.00 0.00 32 1007.0
20260504184523 26 335 4.8 11.3 0.00 0.00 0.00 34 1007.0
20260504183020 26 323 1.6 12.9 0.00 0.00 0.00 33 1007.0
20260504181518 26 25 6.4 19.3 0.00 0.00 0.00 39 1007.2
20260504180014 25 283 0.0 4.8 0.00 0.00 0.00 38 1007.1
20260504174511 23 270 0.0 6.4 0.00 0.00 0.00 41 1007.2
20260504173007 23 321 3.2 9.7 0.00 0.00 0.00 42 1007.3
20260504171504 22 318 3.2 8.0 0.00 0.00 0.00 42 1007.3